TimeCDT,TemperatureF,Dew PointF,Humidity,Sea Level PressureIn,VisibilityMPH,Wind Direction,Wind SpeedMPH,Gust SpeedMPH,PrecipitationIn,Events,Conditions,WindDirDegrees,DateUTC
12:52 AM,57.0,55.0,93,30.19,10.0,NNW,3.5,-,N/A,,Clear,330,2013-10-13 05:52:00
1:52 AM,55.0,53.1,93,30.21,10.0,NW,3.5,-,N/A,,Partly Cloudy,320,2013-10-13 06:52:00
2:52 AM,55.0,53.1,93,30.22,10.0,Calm,Calm,-,N/A,,Clear,0,2013-10-13 07:52:00
3:52 AM,53.1,51.1,93,30.24,10.0,NNW,3.5,-,N/A,,Partly Cloudy,330,2013-10-13 08:52:00
4:52 AM,50.0,48.0,93,30.26,10.0,NNW,5.8,-,N/A,,Partly Cloudy,330,2013-10-13 09:52:00
5:52 AM,48.9,46.0,90,30.28,10.0,NNW,6.9,-,N/A,,Clear,330,2013-10-13 10:52:00
6:52 AM,48.0,45.0,89,30.30,10.0,NNW,5.8,-,N/A,,Clear,330,2013-10-13 11:52:00
7:52 AM,50.0,46.9,89,30.32,10.0,NNW,4.6,-,N/A,,Clear,330,2013-10-13 12:52:00
8:52 AM,55.9,48.0,75,30.34,10.0,North,5.8,-,N/A,,Clear,350,2013-10-13 13:52:00
9:52 AM,61.0,46.9,60,30.35,10.0,NNE,6.9,-,N/A,,Clear,20,2013-10-13 14:52:00
10:52 AM,66.9,46.9,49,30.35,10.0,NE,10.4,-,N/A,,Clear,50,2013-10-13 15:52:00
11:52 AM,70.0,45.0,41,30.34,10.0,NE,6.9,-,N/A,,Clear,50,2013-10-13 16:52:00
12:52 PM,71.1,43.0,36,30.32,10.0,NNE,6.9,-,N/A,,Clear,30,2013-10-13 17:52:00
1:52 PM,72.0,41.0,33,30.30,10.0,NNE,10.4,-,N/A,,Clear,30,2013-10-13 18:52:00
2:52 PM,73.9,41.0,30,30.29,10.0,North,6.9,-,N/A,,Clear,10,2013-10-13 19:52:00
3:52 PM,73.9,39.9,29,30.28,10.0,NNE,9.2,-,N/A,,Clear,20,2013-10-13 20:52:00
4:52 PM,73.0,39.0,29,30.27,10.0,NNE,5.8,-,N/A,,Clear,30,2013-10-13 21:52:00
5:52 PM,69.1,43.0,39,30.28,10.0,North,3.5,-,N/A,,Clear,360,2013-10-13 22:52:00
6:52 PM,59.0,46.9,64,30.29,10.0,North,4.6,-,N/A,,Clear,10,2013-10-13 23:52:00
7:52 PM,54.0,46.9,77,30.30,10.0,Calm,Calm,-,N/A,,Clear,0,2013-10-14 00:52:00
8:52 PM,52.0,46.9,83,30.31,10.0,Calm,Calm,-,N/A,,Clear,0,2013-10-14 01:52:00
9:52 PM,55.9,43.0,62,30.30,10.0,NNE,6.9,-,N/A,,Clear,30,2013-10-14 02:52:00
10:52 PM,54.0,43.0,66,30.30,10.0,NNE,5.8,-,N/A,,Clear,20,2013-10-14 03:52:00
11:52 PM,48.9,44.1,83,30.30,10.0,NNE,4.6,-,N/A,,Clear,20,2013-10-14 04:52:00